Tracking 19634 objects as of 21-May-2019
HD Live streaming from Space Station
objects crossing your sky now

BSAT-2C

Track BSAT-2C now!
BSAT-2C is classified as:


NORAD ID: 27830
Int'l Code: 2003-028A
Perigee: 36,061.1 km
Apogee: 36,131.3 km
Inclination: 4.5 °
Period: 1,451.6 minutes
Semi major axis: 42467 km
RCS: 12.6191 m2 (large)
Launch date: June 11, 2003
Source: Japan (JPN)
Launch site: FRENCH GUIANA (FRGUI)

Backup to BSAT-2A; direct digital broadcasts to homes in Japan and neighboring countries through its Ku-band transponders.
aabbcc
Your satellite tracking list
Your tracking list is empty




NASA's NSSDC Master Catalog

Two Line Element Set (TLE):
1 27830U 03028A   19140.56440880 -.00000046 +00000-0 +00000-0 0  9994
2 27830 004.4831 070.8148 0008273 252.8093 313.3209 00.99202524021017
Source of the keplerian elements: AFSPC